QPF
0.00 0.03 0.05 0.05 0.02 0.00 0.00 0.00 0.00 0.00 0.00 0.00 0.00 0.00 0.00 0.00 0.00 0.00 0.00 0.00 0.00 0.00 0.00 0.00 0.00 0.00 0.00 0.00 0.00 0.00 0.00 0.00 0.00 0.00 0.00 0.00 0.00 0.00 0.00 0.00 0.00 0.00 0.00 0.00 0.00
0.00 0.01 0.02 0.04 0.04 0.01 0.00 0.00 0.00 0.00 0.00 0.00 0.00 0.00 0.00 0.00 0.00 0.00 0.00 0.00 0.00 0.00 0.00 0.00 0.00 0.00 0.00 0.00 0.00 0.00 0.00 0.00 0.00 0.00 0.00 0.00 0.00 0.00 0.00 0.00 0.00 0.00 0.00 0.00 0.00
0.00 0.00 0.01 0.01 0.04 0.03 0.01 0.00 0.00 0.00 0.00 0.00 0.00 0.00 0.00 0.00 0.00 0.00 0.00 0.00 0.00 0.00 0.00 0.00 0.00 0.00 0.00 0.00 0.00 0.00 0.00 0.00 0.00 0.00 0.00 0.00 0.00 0.00 0.00 0.00 0.00 0.00 0.00 0.00 0.00
0.00 0.01 0.01 0.02 0.02 0.04 0.03 0.01 0.00 0.00 0.00 0.00 0.00 0.00 0.00 0.00 0.00 0.00 0.00 0.00 0.00 0.00 0.00 0.00 0.00 0.00 0.00 0.00 0.00 0.00 0.00 0.00 0.00 0.00 0.00 0.00 0.00 0.00 0.00 0.00 0.00 0.00 0.00 0.00 0.00
0.00 0.00 0.00 0.02 0.02 0.02 0.05 0.03 0.01 0.00 0.00 0.00 0.00 0.00 0.00 0.00 0.00 0.00 0.00 0.00 0.00 0.00 0.00 0.00 0.00 0.00 0.00 0.00 0.00 0.00 0.00 0.00 0.00 0.00 0.00 0.00 0.00 0.00 0.00 0.00 0.00 0.00 0.00 0.00 0.00
0.01 0.00 0.00 0.00 0.01 0.01 0.04 0.04 0.03 0.01 0.00 0.00 0.00 0.00 0.00 0.00 0.00 0.00 0.00 0.00 0.00 0.00 0.00 0.00 0.00 0.00 0.00 0.00 0.00 0.00 0.00 0.00 0.00 0.00 0.00 0.00 0.00 0.00 0.00 0.00 0.00 0.00 0.00 0.00 0.00
0.02 0.01 0.01 0.01 0.00 0.00 0.03 0.07 0.05 0.02 0.00 0.00 0.00 0.00 0.00 0.00 0.00 0.00 0.00 0.00 0.00 0.00 0.00 0.00 0.00 0.00 0.00 0.00 0.00 0.00 0.00 0.00 0.00 0.00 0.00 0.00 0.00 0.00 0.00 0.00 0.00 0.00 0.00 0.00 0.00
0.01 0.01 0.01 0.02 0.01 0.00 0.03 0.07 0.05 0.03 0.01 0.01 0.00 0.00 0.00 0.00 0.00 0.00 0.00 0.00 0.00 0.00 0.00 0.00 0.00 0.00 0.00 0.00 0.00 0.00 0.00 0.00 0.00 0.00 0.00 0.00 0.00 0.00 0.00 0.00 0.00 0.00 0.00 0.00 0.00
0.01 0.01 0.01 0.03 0.02 0.01 0.01 0.06 0.06 0.06 0.04 0.02 0.00 0.00 0.00 0.00 0.00 0.00 0.00 0.00 0.00 0.00 0.00 0.00 0.00 0.00 0.00 0.00 0.00 0.00 0.00 0.00 0.00 0.00 0.00 0.00 0.00 0.00 0.00 0.00 0.00 0.00 0.00 0.00 0.00
0.00 0.02 0.02 0.03 0.02 0.01 0.02 0.05 0.02 0.05 0.04 0.01 0.00 0.00 0.00 0.00 0.00 0.00 0.00 0.00 0.00 0.00 0.00 0.00 0.00 0.00 0.00 0.00 0.00 0.00 0.00 0.00 0.00 0.00 0.00 0.00 0.00 0.00 0.00 0.00 0.00 0.00 0.00 0.00 0.00
0.00 0.02 0.04 0.04 0.01 0.02 0.05 0.07 0.03 0.02 0.02 0.00 0.00 0.00 0.00 0.00 0.00 0.00 0.00 0.00 0.00 0.00 0.00 0.00 0.00 0.00 0.00 0.00 0.00 0.00 0.00 0.00 0.00 0.00 0.00 0.00 0.00 0.00 0.00 0.00 0.00 0.00 0.00 0.00 0.00
0.00 0.02 0.04 0.04 0.01 0.01 0.03 0.02 0.00 0.00 0.00 0.00 0.00 0.00 0.00 0.00 0.00 0.00 0.00 0.00 0.01 0.00 0.00 0.00 0.00 0.00 0.00 0.00 0.00 0.00 0.00 0.00 0.00 0.00 0.00 0.00 0.00 0.00 0.00 0.00 0.00 0.00 0.00 0.00 0.00
0.02 0.03 0.04 0.01 0.00 0.01 0.01 0.01 0.03 0.02 0.01 0.01 0.00 0.00 0.00 0.00 0.00 0.00 0.00 0.00 0.00 0.00 0.00 0.00 0.00 0.00 0.00 0.00 0.00 0.00 0.00 0.00 0.00 0.00 0.00 0.00 0.00 0.00 0.00 0.00 0.00 0.00 0.00 0.00 0.00
0.04 0.03 0.05 0.01 0.00 0.00 0.00 0.01 0.02 0.03 0.02 0.01 0.01 0.00 0.00 0.00 0.00 0.00 0.00 0.00 0.00 0.00 0.00 0.00 0.00 0.00 0.00 0.00 0.00 0.00 0.00 0.00 0.00 0.00 0.00 0.00 0.00 0.00 0.00 0.00 0.00 0.00 0.00 0.00 0.00
0.04 0.03 0.04 0.00 0.00 0.00 0.00 0.00 0.01 0.04 0.02 0.00 0.00 0.00 0.00 0.00 0.00 0.00 0.00 0.00 0.00 0.00 0.00 0.00 0.00 0.00 0.00 0.00 0.00 0.00 0.00 0.00 0.00 0.00 0.00 0.00 0.00 0.00 0.00 0.00 0.00 0.00 0.00 0.00 0.00
0.03 0.03 0.05 0.01 0.00 0.01 0.00 0.00 0.02 0.04 0.01 0.00 0.01 0.00 0.00 0.00 0.00 0.00 0.00 0.00 0.00 0.00 0.00 0.00 0.00 0.00 0.00 0.00 0.00 0.00 0.00 0.00 0.00 0.00 0.00 0.00 0.00 0.00 0.00 0.00 0.00 0.00 0.00 0.00 0.00
0.04 0.04 0.02 0.00 0.00 0.02 0.01 0.00 0.01 0.01 0.00 0.00 0.00 0.01 0.00 0.00 0.01 0.00 0.00 0.01 0.00 0.00 0.00 0.00 0.00 0.00 0.00 0.00 0.00 0.00 0.00 0.01 0.01 0.01 0.00 0.00 0.00 0.00 0.00 0.00 0.00 0.00 0.00 0.00 0.00
0.05 0.05 0.01 0.01 0.02 0.04 0.01 0.00 0.00 0.00 0.00 0.00 0.00 0.00 0.00 0.00 0.01 0.00 0.00 0.00 0.00 0.00 0.00 0.00 0.00 0.00 0.00 0.00 0.00 0.00 0.00 0.00 0.00 0.00 0.00 0.00 0.00 0.00 0.00 0.00 0.00 0.00 0.00 0.00 0.00
0.04 0.02 0.01 0.02 0.04 0.04 0.00 0.00 0.00 0.00 0.00 0.00 0.01 0.01 0.01 0.01 0.00 0.01 0.00 0.00 0.00 0.00 0.00 0.00 0.00 0.00 0.00 0.00 0.00 0.01 0.02 0.00 0.00 0.00 0.00 0.00 0.00 0.00 0.00 0.00 0.00 0.00 0.00 0.00 0.00
0.00 0.00 0.01 0.02 0.02 0.01 0.00 0.00 0.00 0.00 0.00 0.00 0.01 0.00 0.00 0.00 0.01 0.01 0.01 0.00 0.00 0.00 0.00 0.00 0.00 0.00 0.00 0.00 0.00 0.00 0.00 0.00 0.01 0.00 0.00 0.00 0.00 0.00 0.00 0.00 0.00 0.00 0.00 0.00 0.00
0.00 0.00 0.03 0.02 0.01 0.00 0.00 0.00 0.00 0.00 0.00 0.00 0.01 0.00 0.00 0.00 0.00 0.00 0.00 0.00 0.00 0.00 0.00 0.00 0.00 0.00 0.00 0.00 0.00 0.00 0.01 0.00 0.00 0.00 0.00 0.00 0.00 0.00 0.00 0.00 0.00 0.00 0.00 0.00 0.00
0.00 0.00 0.01 0.01 0.00 0.00 0.00 0.00 0.00 0.00 0.00 0.00 0.00 0.00 0.00 0.01 0.01 0.00 0.00 0.00 0.00 0.00 0.00 0.00 0.00 0.00 0.00 0.00 0.00 0.00 0.00 0.00 0.00 0.00 0.00 0.00 0.00 0.00 0.00 0.00 0.00 0.00 0.00 0.00 0.00
0.00 0.00 0.00 0.00 0.00 0.00 0.00 0.00 0.00 0.00 0.00 0.00 0.00 0.00 0.00 0.01 0.02 0.00 0.00 0.00 0.00 0.00 0.00 0.01 0.02 0.00 0.00 0.00 0.00 0.00 0.00 0.00 0.00 0.00 0.00 0.00 0.00 0.00 0.00 0.00 0.00 0.00 0.00 0.00 0.00
0.00 0.00 0.00 0.00 0.00 0.00 0.00 0.00 0.00 0.00 0.00 0.00 0.00 0.00 0.00 0.00 0.01 0.00 0.00 0.00 0.00 0.00 0.00 0.03 0.01 0.00 0.00 0.00 0.00 0.00 0.00 0.00 0.01 0.01 0.00 0.00 0.00 0.00 0.00 0.00 0.00 0.00 0.00 0.00 0.00
0.00 0.00 0.00 0.00 0.00 0.00 0.00 0.00 0.00 0.00 0.00 0.00 0.00 0.00 0.00 0.00 0.00 0.01 0.00 0.00 0.00 0.00 0.02 0.05 0.02 0.00 0.00 0.00 0.00 0.00 0.00 0.01 0.02 0.00 0.00 0.00 0.00 0.00 0.00 0.00 0.00 0.00 0.00 0.00 0.00
0.00 0.00 0.00 0.00 0.00 0.00 0.00 0.00 0.00 0.00 0.00 0.00 0.00 0.00 0.00 0.00 0.00 0.01 0.01 0.02 0.01 0.01 0.02 0.04 0.01 0.00 0.00 0.00 0.00 0.01 0.01 0.00 0.00 0.00 0.00 0.00 0.00 0.00 0.00 0.00 0.00 0.00 0.00 0.00 0.00
0.00 0.00 0.00 0.00 0.00 0.00 0.00 0.00 0.00 0.00 0.00 0.00 0.00 0.00 0.00 0.00 0.00 0.00 0.00 0.01 0.02 0.02 0.03 0.03 0.01 0.01 0.00 0.00 0.01 0.04 0.00 0.00 0.00 0.00 0.00 0.00 0.00 0.00 0.00 0.00 0.00 0.00 0.00 0.00 0.00
MSLP
1016.27 1016.21 1016.34 1016.51 1016.74 1016.98 1017.37 1017.53 1017.74 1018.00 1018.06 1018.24 1018.18 1018.22 1018.39 1018.29 1017.93 1017.60 1017.54 1017.38 1017.18 1016.83 1016.22 1015.83 1015.03 1014.83 1014.23 1014.21 1014.03 1014.03 1014.81 1015.09 1014.95 1014.91 1014.95 1014.83 1014.87 1015.06 1015.42 1016.00 1016.77 1017.10 1017.58 1017.97 1018.35
1016.16 1016.17 1016.26 1016.28 1016.47 1016.75 1017.02 1017.25 1017.56 1017.77 1017.81 1017.97 1018.01 1018.33 1018.51 1018.39 1018.22 1017.72 1017.35 1017.08 1017.06 1016.95 1016.65 1016.60 1016.14 1015.68 1015.22 1014.79 1014.63 1014.70 1015.10 1015.13 1014.76 1014.56 1014.68 1014.89 1015.10 1015.31 1016.00 1016.59 1017.67 1017.97 1018.16 1018.29 1018.49
1016.01 1015.99 1015.98 1016.17 1016.24 1016.44 1016.74 1016.98 1017.44 1017.63 1017.83 1018.00 1018.29 1018.33 1018.45 1018.35 1018.13 1017.42 1017.16 1016.93 1016.88 1016.97 1017.07 1016.98 1016.62 1016.30 1016.00 1015.35 1015.16 1015.15 1015.37 1015.07 1015.13 1014.73 1014.54 1014.84 1015.34 1015.37 1016.07 1016.89 1017.05 1017.86 1018.34 1018.49 1018.68
1015.70 1015.74 1015.80 1015.83 1016.03 1016.21 1016.42 1016.78 1017.23 1017.57 1017.82 1018.15 1018.33 1018.27 1018.43 1018.46 1018.09 1017.32 1017.10 1016.82 1016.77 1016.88 1017.16 1016.98 1016.76 1016.69 1016.47 1016.11 1015.56 1015.74 1015.54 1015.49 1015.28 1015.19 1015.18 1015.28 1015.40 1015.70 1016.11 1016.51 1016.31 1016.93 1017.52 1018.13 1018.47
1015.33 1015.56 1015.61 1015.80 1015.70 1015.95 1016.31 1016.64 1017.05 1017.38 1017.65 1018.11 1018.28 1018.43 1018.66 1018.47 1017.56 1017.08 1017.05 1016.77 1016.82 1017.04 1017.24 1017.14 1017.07 1016.87 1016.83 1016.47 1016.11 1016.06 1016.05 1016.02 1016.01 1015.79 1015.96 1015.76 1016.00 1016.20 1016.52 1016.53 1016.59 1017.09 1017.51 1017.90 1018.13
1015.12 1015.25 1015.24 1015.46 1015.43 1015.84 1016.03 1016.35 1016.83 1017.32 1017.69 1018.03 1018.31 1018.56 1018.81 1018.17 1017.01 1016.97 1016.95 1016.86 1016.77 1017.11 1017.18 1017.21 1017.13 1017.03 1016.93 1016.75 1016.84 1016.64 1016.62 1016.56 1016.46 1016.64 1016.55 1016.66 1016.81 1016.71 1016.49 1016.61 1016.82 1016.88 1017.32 1017.61 1017.77
1014.82 1014.78 1014.92 1015.07 1015.29 1015.57 1015.80 1016.17 1016.63 1017.21 1017.65 1018.01 1018.49 1018.66 1018.61 1017.65 1016.94 1016.94 1016.91 1016.97 1017.00 1017.06 1017.09 1017.09 1017.17 1017.18 1017.07 1017.06 1017.13 1017.02 1017.28 1017.26 1017.18 1017.23 1017.36 1017.36 1017.74 1017.35 1016.71 1016.82 1017.20 1017.22 1017.09 1017.44 1017.61
1014.54 1014.57 1014.80 1014.90 1015.24 1015.42 1015.63 1015.96 1016.48 1017.08 1017.55 1018.05 1018.39 1018.76 1018.31 1017.04 1016.95 1017.14 1016.94 1017.06 1016.89 1016.92 1017.06 1017.00 1017.18 1017.42 1017.58 1017.48 1017.79 1018.11 1018.29 1018.39 1017.91 1017.63 1017.75 1018.02 1018.06 1017.46 1017.25 1017.24 1017.39 1017.51 1017.37 1017.28 1017.46
1014.34 1014.54 1014.71 1014.68 1015.10 1015.34 1015.73 1016.00 1016.50 1017.01 1017.58 1018.04 1018.72 1018.81 1018.15 1016.97 1017.03 1017.06 1017.03 1017.15 1017.13 1017.16 1017.20 1017.21 1017.49 1017.94 1018.15 1018.51 1019.18 1019.25 1019.25 1019.06 1018.53 1017.74 1018.00 1018.28 1018.46 1017.75 1017.47 1017.50 1017.61 1017.52 1017.52 1017.40 1017.45
1014.05 1014.33 1014.37 1014.65 1015.14 1015.37 1015.77 1016.15 1016.78 1017.42 1017.88 1018.47 1018.59 1019.10 1017.77 1016.95 1016.90 1016.99 1017.09 1017.17 1017.46 1017.51 1017.87 1018.11 1018.31 1018.76 1019.00 1019.22 1019.57 1019.80 1019.84 1019.32 1018.90 1018.20 1018.27 1018.61 1018.64 1018.27 1017.88 1017.95 1017.99 1017.81 1017.73 1017.67 1017.53
1013.76 1014.09 1014.49 1014.69 1015.28 1015.27 1015.91 1016.70 1017.50 1017.71 1017.20 1017.29 1016.82 1017.19 1016.46 1016.80 1016.87 1017.04 1017.20 1017.40 1017.67 1017.92 1018.51 1018.68 1019.00 1018.76 1018.80 1018.82 1019.02 1019.37 1019.70 1019.70 1019.09 1018.45 1018.66 1018.89 1019.05 1018.74 1018.50 1018.36 1018.19 1017.98 1017.66 1017.55 1017.64
1013.53 1013.89 1014.07 1014.89 1015.01 1015.25 1015.78 1015.98 1015.62 1015.52 1016.61 1016.96 1016.73 1016.96 1016.64 1016.56 1017.13 1017.15 1017.22 1017.53 1017.86 1018.16 1018.66 1019.18 1018.81 1018.91 1019.06 1019.32 1019.46 1019.47 1019.74 1019.87 1019.43 1018.93 1019.24 1019.56 1019.45 1019.00 1018.71 1018.31 1017.85 1017.69 1017.57 1017.28 1017.56
1013.27 1013.77 1014.34 1014.87 1015.30 1015.70 1015.73 1015.91 1015.94 1015.81 1016.14 1016.66 1016.82 1016.62 1016.51 1016.70 1016.77 1016.92 1017.18 1017.38 1017.83 1018.34 1018.35 1018.61 1018.52 1018.70 1018.93 1019.11 1019.41 1019.53 1019.66 1019.88 1019.95 1019.76 1019.77 1019.91 1019.43 1018.84 1017.76 1017.21 1017.18 1016.92 1016.73 1016.80 1017.10
1013.02 1013.58 1014.30 1015.08 1015.64 1015.77 1015.97 1016.19 1016.77 1016.60 1016.60 1016.44 1015.88 1015.92 1016.35 1016.56 1016.79 1016.68 1017.02 1017.34 1017.84 1018.11 1018.53 1018.72 1018.42 1018.46 1018.54 1018.67 1018.97 1019.37 1019.47 1019.91 1020.29 1020.78 1021.02 1020.89 1019.96 1018.69 1017.69 1017.02 1016.52 1016.21 1016.08 1016.27 1016.80
1012.65 1013.39 1014.01 1014.72 1015.06 1015.73 1016.13 1016.23 1016.68 1016.74 1015.40 1015.21 1015.43 1015.82 1015.87 1016.49 1016.48 1017.03 1016.98 1017.35 1017.44 1017.47 1018.16 1018.10 1017.99 1018.20 1018.17 1018.18 1018.66 1019.09 1019.31 1020.07 1020.66 1021.41 1021.77 1021.59 1021.51 1018.24 1017.49 1016.88 1015.95 1015.30 1015.45 1015.76 1016.27
1012.35 1013.21 1013.96 1014.70 1015.17 1015.52 1015.72 1016.58 1017.26 1016.69 1014.73 1014.72 1014.49 1014.93 1015.97 1016.28 1016.49 1016.99 1017.39 1017.73 1017.42 1017.68 1017.96 1018.12 1017.81 1017.74 1017.53 1017.95 1018.39 1019.07 1019.90 1020.64 1021.35 1022.17 1021.99 1021.61 1021.48 1017.80 1017.07 1015.76 1015.06 1014.94 1015.21 1015.59 1016.46
1012.13 1013.06 1014.02 1014.71 1015.56 1015.77 1015.82 1017.52 1017.51 1015.63 1014.75 1014.88 1014.19 1014.57 1015.15 1015.48 1016.30 1016.30 1017.01 1017.72 1017.47 1018.07 1018.13 1018.24 1017.99 1017.70 1017.40 1017.95 1018.42 1019.05 1020.34 1021.71 1022.57 1022.75 1021.56 1020.63 1020.74 1016.71 1015.91 1014.86 1014.72 1014.70 1015.00 1015.58 1016.52
1012.07 1013.19 1014.16 1014.86 1015.09 1015.68 1016.20 1017.73 1017.30 1016.08 1014.77 1014.40 1014.36 1014.82 1014.92 1015.42 1015.95 1016.20 1016.80 1017.25 1017.12 1016.95 1017.48 1017.90 1018.24 1017.64 1017.58 1017.57 1017.91 1018.39 1019.52 1020.47 1021.50 1022.11 1021.49 1020.76 1019.14 1016.29 1014.79 1014.25 1014.01 1014.13 1014.74 1015.70 1016.77
1012.30 1013.89 1014.79 1015.01 1015.25 1016.05 1017.07 1017.22 1016.98 1016.34 1016.13 1015.05 1014.91 1015.00 1015.15 1015.07 1015.23 1015.95 1016.10 1016.00 1016.00 1015.96 1016.45 1017.06 1017.11 1016.74 1017.08 1017.23 1017.58 1018.50 1018.94 1019.68 1020.81 1022.07 1021.78 1020.22 1018.15 1016.05 1014.71 1014.21 1014.29 1014.41 1015.25 1016.07 1016.86
1012.49 1014.30 1015.51 1015.49 1015.66 1016.88 1017.76 1017.70 1017.43 1017.23 1017.02 1016.16 1015.18 1014.82 1014.92 1014.88 1015.21 1015.43 1015.78 1014.97 1015.24 1015.30 1015.43 1016.03 1016.98 1017.10 1017.16 1017.46 1017.58 1017.68 1018.52 1019.71 1020.69 1021.90 1021.73 1019.70 1018.14 1015.74 1014.62 1014.36 1014.52 1015.02 1015.23 1015.81 1016.59
1012.80 1015.01 1016.17 1015.74 1016.33 1017.78 1018.33 1018.51 1018.17 1018.10 1017.83 1017.66 1016.92 1016.01 1015.10 1014.91 1014.35 1014.63 1014.31 1014.10 1014.04 1014.63 1015.37 1015.85 1016.27 1017.90 1017.54 1017.31 1017.23 1017.99 1018.16 1018.73 1019.47 1020.41 1020.26 1019.35 1016.83 1014.29 1013.73 1013.96 1014.28 1014.54 1015.05 1015.68 1016.39
1013.51 1015.65 1016.35 1015.96 1017.40 1018.37 1019.12 1019.00 1018.60 1018.00 1018.27 1018.28 1017.82 1016.86 1016.76 1015.13 1014.61 1014.40 1013.49 1012.88 1012.95 1013.80 1014.47 1015.02 1015.88 1017.36 1017.24 1017.19 1017.19 1017.06 1016.97 1017.71 1018.55 1019.15 1019.06 1018.45 1015.64 1013.85 1013.44 1013.75 1013.88 1014.14 1014.65 1015.17 1015.77
1014.80 1016.31 1016.81 1016.83 1018.31 1019.56 1019.45 1019.00 1018.88 1018.31 1017.74 1017.86 1017.30 1016.86 1016.89 1016.63 1015.43 1013.91 1013.30 1012.63 1012.61 1013.31 1013.58 1014.41 1015.30 1016.92 1017.52 1017.85 1017.63 1017.27 1017.67 1017.61 1018.09 1018.53 1018.42 1018.04 1013.75 1013.23 1012.99 1013.46 1013.55 1014.03 1014.23 1014.82 1015.75
1014.66 1017.09 1017.98 1018.08 1018.70 1019.27 1020.18 1019.79 1019.09 1017.63 1017.62 1017.81 1017.32 1016.67 1016.89 1016.51 1016.17 1014.79 1013.59 1012.95 1012.87 1012.79 1013.28 1013.72 1014.51 1014.73 1014.73 1014.87 1016.40 1017.02 1016.81 1017.05 1017.38 1017.73 1016.99 1016.34 1013.31 1013.19 1013.44 1013.42 1013.72 1013.93 1014.12 1014.57 1015.33
1015.11 1017.58 1018.11 1018.88 1019.33 1019.65 1019.53 1019.34 1018.83 1018.46 1018.20 1017.81 1017.74 1017.23 1016.91 1016.54 1016.21 1015.87 1015.22 1013.92 1013.15 1012.86 1013.12 1013.45 1013.95 1014.56 1014.36 1014.97 1015.26 1015.37 1015.77 1016.55 1016.96 1015.81 1016.29 1014.10 1013.91 1012.36 1013.14 1013.49 1013.56 1013.68 1014.06 1014.87 1015.12
1016.22 1017.60 1018.36 1018.81 1019.21 1019.77 1019.94 1019.76 1019.00 1018.66 1018.03 1017.68 1017.57 1016.73 1016.66 1016.33 1015.61 1016.30 1016.80 1016.10 1014.67 1013.45 1013.08 1013.28 1013.64 1014.23 1014.46 1014.83 1015.19 1015.61 1015.63 1015.39 1015.00 1015.06 1015.47 1014.00 1013.38 1011.56 1012.16 1012.75 1013.20 1013.54 1013.92 1014.31 1014.59
1016.54 1017.03 1017.60 1019.31 1020.03 1020.39 1019.98 1019.13 1018.59 1018.12 1017.01 1016.37 1016.42 1016.90 1016.29 1015.74 1015.66 1015.74 1016.27 1016.60 1016.21 1016.11 1013.52 1012.86 1013.26 1014.09 1013.98 1014.58 1015.20 1015.26 1014.02 1014.26 1014.56 1013.89 1013.76 1013.70 1011.65 1011.15 1011.19 1011.95 1012.47 1012.99 1013.20 1013.16 1013.58
Thickness
5531 5540 5547 5553 5559 5564 5568 5575 5581 5587 5594 5600 5608 5612 5616 5624 5636 5646 5648 5659 5666 5672 5682 5690 5700 5703 5713 5713 5719 5719 5687 5683 5698 5694 5702 5717 5714 5724 5728 5717 5715 5720 5716 5716 5718
5521 5527 5536 5545 5551 5557 5563 5568 5574 5579 5587 5593 5601 5604 5608 5615 5624 5634 5647 5654 5661 5666 5671 5672 5677 5686 5688 5699 5703 5695 5678 5689 5703 5707 5707 5714 5713 5713 5710 5706 5700 5704 5711 5714 5714
5511 5519 5527 5535 5543 5550 5556 5562 5566 5572 5577 5582 5587 5595 5600 5610 5615 5630 5640 5648 5655 5659 5664 5666 5672 5675 5677 5690 5692 5692 5679 5698 5693 5706 5716 5712 5709 5715 5700 5697 5704 5700 5702 5705 5707
5503 5512 5518 5526 5534 5542 5549 5554 5558 5563 5568 5572 5578 5585 5591 5599 5597 5624 5634 5642 5648 5653 5655 5659 5663 5662 5665 5669 5685 5676 5687 5689 5695 5698 5706 5700 5709 5705 5703 5704 5716 5713 5708 5705 5704
5495 5502 5510 5515 5527 5534 5539 5545 5550 5556 5561 5563 5569 5574 5580 5585 5599 5616 5624 5632 5640 5644 5645 5649 5651 5655 5652 5664 5671 5672 5677 5682 5685 5689 5691 5700 5698 5696 5694 5702 5709 5712 5705 5703 5702
5485 5492 5502 5508 5519 5524 5533 5538 5542 5546 5551 5555 5560 5564 5569 5575 5598 5606 5614 5622 5630 5632 5636 5642 5645 5651 5652 5657 5655 5668 5666 5674 5681 5680 5683 5682 5684 5690 5699 5701 5699 5704 5704 5703 5703
5474 5484 5493 5502 5509 5517 5524 5530 5534 5537 5541 5545 5548 5554 5561 5573 5590 5598 5605 5611 5618 5624 5627 5634 5641 5641 5646 5648 5652 5659 5653 5660 5665 5670 5666 5674 5663 5674 5692 5693 5689 5695 5699 5698 5698
5464 5474 5482 5492 5499 5508 5517 5523 5526 5529 5532 5535 5539 5545 5551 5574 5583 5588 5596 5601 5610 5617 5619 5628 5633 5630 5633 5644 5638 5639 5638 5625 5649 5659 5660 5660 5644 5674 5682 5681 5681 5687 5691 5694 5695
5454 5462 5473 5484 5490 5498 5506 5513 5518 5521 5523 5525 5529 5535 5544 5567 5573 5580 5588 5591 5598 5605 5612 5617 5618 5614 5620 5614 5608 5617 5606 5617 5630 5654 5651 5647 5640 5669 5673 5671 5675 5678 5684 5687 5688
5445 5454 5465 5474 5480 5488 5494 5502 5506 5509 5511 5512 5520 5521 5543 5557 5566 5572 5579 5585 5586 5591 5593 5596 5596 5591 5595 5594 5587 5600 5604 5612 5612 5641 5635 5633 5634 5654 5661 5664 5667 5670 5676 5679 5683
5438 5444 5454 5465 5469 5478 5482 5487 5492 5497 5508 5518 5530 5531 5546 5551 5558 5562 5569 5573 5577 5578 5573 5582 5577 5579 5596 5601 5603 5603 5601 5600 5611 5628 5627 5624 5624 5640 5645 5648 5652 5662 5668 5673 5676
5433 5436 5446 5452 5460 5469 5473 5485 5499 5510 5505 5506 5519 5524 5534 5543 5543 5551 5561 5561 5564 5566 5570 5568 5570 5585 5589 5590 5591 5591 5593 5592 5603 5614 5613 5610 5612 5627 5633 5640 5651 5658 5660 5667 5670
5428 5429 5434 5440 5448 5456 5465 5477 5484 5493 5500 5507 5512 5515 5524 5531 5537 5543 5551 5555 5558 5558 5563 5562 5576 5581 5581 5581 5581 5582 5580 5585 5588 5597 5600 5600 5601 5616 5636 5645 5647 5657 5665 5666 5668
5422 5424 5423 5432 5437 5448 5460 5467 5469 5481 5488 5495 5504 5509 5516 5521 5528 5539 5543 5547 5548 5552 5554 5556 5570 5573 5572 5574 5578 5572 5580 5582 5580 5573 5565 5583 5563 5608 5630 5634 5644 5657 5661 5662 5661
5418 5419 5422 5425 5433 5443 5456 5463 5466 5473 5498 5494 5493 5506 5512 5513 5523 5525 5533 5537 5541 5548 5550 5553 5560 5559 5564 5572 5573 5570 5578 5570 5571 5560 5559 5571 5556 5596 5619 5629 5641 5651 5654 5655 5657
5413 5413 5415 5417 5426 5439 5449 5451 5451 5466 5481 5485 5496 5501 5499 5503 5509 5514 5518 5524 5535 5538 5543 5543 5554 5558 5565 5566 5566 5563 5561 5559 5554 5547 5541 5558 5559 5582 5610 5629 5637 5645 5647 5650 5646
5408 5407 5408 5408 5411 5425 5435 5430 5440 5470 5471 5476 5496 5504 5507 5507 5498 5511 5511 5509 5517 5520 5523 5535 5540 5551 5560 5554 5556 5553 5542 5517 5513 5526 5532 5559 5558 5603 5615 5632 5635 5639 5643 5638 5636
5401 5400 5399 5401 5405 5411 5424 5421 5434 5448 5457 5482 5492 5495 5500 5498 5499 5502 5501 5507 5516 5525 5521 5516 5510 5534 5543 5548 5549 5548 5540 5527 5517 5523 5537 5547 5553 5588 5610 5623 5627 5633 5630 5626 5620
5394 5391 5391 5396 5399 5403 5402 5413 5423 5443 5442 5478 5482 5479 5481 5498 5502 5495 5498 5512 5520 5527 5527 5520 5523 5536 5537 5541 5543 5530 5527 5543 5527 5485 5506 5534 5560 5586 5602 5611 5613 5612 5612 5610 5608
5391 5384 5382 5389 5392 5390 5390 5404 5410 5423 5425 5443 5466 5480 5483 5491 5490 5496 5494 5515 5516 5523 5526 5523 5509 5517 5525 5527 5527 5528 5532 5517 5504 5488 5480 5530 5542 5571 5591 5596 5596 5597 5598 5597 5593
5387 5374 5377 5384 5383 5375 5381 5388 5398 5408 5414 5427 5436 5463 5480 5479 5499 5493 5501 5514 5522 5520 5518 5515 5512 5496 5509 5512 5523 5518 5515 5518 5519 5499 5496 5498 5540 5578 5595 5589 5587 5583 5586 5584 5582
5379 5370 5374 5382 5368 5363 5372 5379 5392 5406 5405 5410 5421 5432 5439 5482 5488 5487 5501 5517 5522 5519 5510 5516 5504 5478 5501 5510 5514 5521 5523 5520 5511 5503 5509 5514 5538 5582 5582 5582 5579 5578 5571 5572 5574
5369 5367 5369 5374 5354 5333 5364 5376 5389 5395 5402 5405 5420 5426 5423 5438 5466 5492 5494 5513 5512 5510 5508 5509 5488 5467 5484 5484 5482 5500 5504 5514 5513 5502 5504 5498 5558 5578 5577 5568 5567 5565 5561 5557 5549
5371 5361 5360 5365 5362 5350 5333 5350 5366 5399 5401 5401 5409 5424 5422 5435 5437 5455 5492 5502 5503 5508 5505 5506 5487 5502 5507 5516 5494 5484 5498 5506 5506 5495 5509 5509 5553 5560 5556 5555 5552 5554 5551 5543 5537
5368 5356 5353 5363 5356 5347 5359 5365 5369 5363 5388 5391 5393 5407 5424 5422 5428 5439 5449 5480 5490 5496 5498 5498 5493 5492 5508 5502 5499 5500 5500 5492 5490 5511 5495 5537 5527 5557 5551 5541 5543 5543 5539 5526 5521
5358 5349 5344 5327 5352 5358 5347 5335 5364 5351 5370 5382 5382 5409 5410 5417 5437 5427 5421 5431 5463 5484 5491 5486 5472 5479 5489 5488 5483 5481 5484 5496 5502 5505 5496 5519 5519 5562 5548 5535 5531 5531 5526 5521 5519
5361 5362 5356 5344 5339 5334 5338 5343 5361 5369 5381 5390 5391 5383 5402 5419 5422 5429 5424 5423 5426 5424 5475 5482 5480 5469 5487 5478 5471 5461 5486 5491 5490 5503 5505 5493 5531 5544 5543 5534 5529 5519 5514 5522 5516